contact:dominique.lefevre@mio.osupytheas.fr, maurice.libes@osupytheas.fr, didier.mallarino@osupytheas.fr
Project:EMSO http://www.emso-fr.org/EMSO-France
Depth: 2436.0 m
Title:EMSO Ligure Ouest : Data MII capteur MICROCAT
DateTime_Computer,Latitude,Longitude,Temperature,Conductivity,Pressure,DateTime_Instrument
DateTime_Computer,Latitude,Longitude,degC,S m-1,dbar,DateTime_Instrument
2023-07-06T00:00:43Z,42.805,6.029,13.3021,4.60080,2470.763,2023-7-06T02:02:58Z
2023-07-06T00:03:46Z,42.805,6.029,13.3020,4.60081,2470.773,2023-7-06T02:06:02Z
2023-07-06T00:06:49Z,42.805,6.029,13.3017,4.60081,2470.8,2023-7-06T02:09:05Z
2023-07-06T00:09:52Z,42.805,6.029,13.3022,4.60080,2470.8,2023-7-06T02:12:08Z
2023-07-06T00:12:55Z,42.805,6.029,13.3019,4.60079,2470.787,2023-7-06T02:15:11Z
2023-07-06T00:15:58Z,42.805,6.029,13.3019,4.60081,2470.777,2023-7-06T02:18:14Z
2023-07-06T00:19:01Z,42.805,6.029,13.3020,4.60080,2470.8,2023-7-06T02:21:17Z
2023-07-06T00:22:04Z,42.805,6.029,13.3021,4.60079,2470.763,2023-7-06T02:24:20Z
2023-07-06T00:25:07Z,42.805,6.029,13.3022,4.60081,2470.787,2023-7-06T02:27:23Z
2023-07-06T00:28:10Z,42.805,6.029,13.3021,4.60080,2470.763,2023-7-06T02:30:26Z
2023-07-06T00:31:13Z,42.805,6.029,13.3019,4.60081,2470.763,2023-7-06T02:33:29Z
2023-07-06T00:34:16Z,42.805,6.029,13.3017,4.60081,2470.763,2023-7-06T02:36:32Z
2023-07-06T00:37:20Z,42.805,6.029,13.3019,4.60081,2470.777,2023-7-06T02:39:35Z
2023-07-06T00:40:23Z,42.805,6.029,13.3021,4.60081,2470.763,2023-7-06T02:42:38Z
2023-07-06T00:43:26Z,42.805,6.029,13.3020,4.60081,2470.74,2023-7-06T02:45:41Z
2023-07-06T00:46:29Z,42.805,6.029,13.3025,4.60079,2470.763,2023-7-06T02:48:45Z
2023-07-06T00:49:32Z,42.805,6.029,13.3021,4.60079,2470.74,2023-7-06T02:51:48Z
2023-07-06T00:52:35Z,42.805,6.029,13.3022,4.60081,2470.717,2023-7-06T02:54:51Z
2023-07-06T00:55:38Z,42.805,6.029,13.3024,4.60079,2470.777,2023-7-06T02:57:54Z
2023-07-06T00:58:41Z,42.805,6.029,13.3020,4.60079,2470.717,2023-7-06T03:00:57Z
2023-07-06T01:01:44Z,42.805,6.029,13.3021,4.60081,2470.777,2023-7-06T03:04:00Z
2023-07-06T01:04:47Z,42.805,6.029,13.3021,4.60080,2470.726,2023-7-06T03:07:03Z
2023-07-06T01:07:50Z,42.805,6.029,13.3018,4.60079,2470.717,2023-7-06T03:10:06Z
2023-07-06T01:10:53Z,42.805,6.029,13.3018,4.60081,2470.717,2023-7-06T03:13:09Z
2023-07-06T01:13:56Z,42.805,6.029,13.3019,4.60080,2470.754,2023-7-06T03:16:12Z
2023-07-06T01:16:59Z,42.805,6.029,13.3019,4.60079,2470.707,2023-7-06T03:19:15Z
2023-07-06T01:20:03Z,42.805,6.029,13.3022,4.60081,2470.717,2023-7-06T03:22:18Z
2023-07-06T01:23:06Z,42.805,6.029,13.3019,4.60080,2470.693,2023-7-06T03:25:21Z
2023-07-06T01:26:09Z,42.805,6.029,13.3019,4.60079,2470.717,2023-7-06T03:28:25Z
2023-07-06T01:29:12Z,42.805,6.029,13.3022,4.60079,2470.717,2023-7-06T03:31:28Z
2023-07-06T01:32:15Z,42.805,6.029,13.3020,4.60080,2470.717,2023-7-06T03:34:31Z
2023-07-06T01:35:18Z,42.805,6.029,13.3019,4.60079,2470.717,2023-7-06T03:37:34Z
2023-07-06T01:38:21Z,42.805,6.029,13.3018,4.60079,2470.754,2023-7-06T03:40:37Z
2023-07-06T01:41:24Z,42.805,6.029,13.3015,4.60080,2470.707,2023-7-06T03:43:40Z
2023-07-06T01:44:27Z,42.805,6.029,13.3021,4.60079,2470.717,2023-7-06T03:46:43Z
2023-07-06T01:47:30Z,42.805,6.029,13.3021,4.60080,2470.707,2023-7-06T03:49:46Z
2023-07-06T01:50:33Z,42.805,6.029,13.3022,4.60081,2470.693,2023-7-06T03:52:49Z
2023-07-06T01:53:36Z,42.805,6.029,13.3024,4.60079,2470.67,2023-7-06T03:55:52Z
2023-07-06T01:56:39Z,42.805,6.029,13.3015,4.60079,2470.67,2023-7-06T03:58:55Z
2023-07-06T01:59:43Z,42.805,6.029,13.3021,4.60079,2470.693,2023-7-06T04:01:58Z
2023-07-06T02:02:46Z,42.805,6.029,13.3019,4.60080,2470.693,2023-7-06T04:05:01Z
2023-07-06T02:05:49Z,42.805,6.029,13.3022,4.60079,2470.693,2023-7-06T04:08:05Z
2023-07-06T02:08:52Z,42.805,6.029,13.3021,4.60080,2470.693,2023-7-06T04:11:08Z
2023-07-06T02:11:55Z,42.805,6.029,13.3019,4.60080,2470.67,2023-7-06T04:14:11Z
2023-07-06T02:14:58Z,42.805,6.029,13.3023,4.60080,2470.693,2023-7-06T04:17:14Z
2023-07-06T02:18:01Z,42.805,6.029,13.3021,4.60079,2470.661,2023-7-06T04:20:17Z
2023-07-06T02:21:04Z,42.805,6.029,13.3021,4.60079,2470.67,2023-7-06T04:23:20Z
2023-07-06T02:24:07Z,42.805,6.029,13.3020,4.60080,2470.67,2023-7-06T04:26:23Z
2023-07-06T02:27:10Z,42.805,6.029,13.3021,4.60080,2470.684,2023-7-06T04:29:26Z
2023-07-06T02:30:13Z,42.805,6.029,13.3024,4.60084,2470.684,2023-7-06T04:32:29Z
2023-07-06T02:33:16Z,42.805,6.029,13.3023,4.60079,2470.624,2023-7-06T04:35:32Z
2023-07-06T02:36:19Z,42.805,6.029,13.3021,4.60079,2470.684,2023-7-06T04:38:35Z
2023-07-06T02:39:22Z,42.805,6.029,13.3020,4.60080,2470.661,2023-7-06T04:41:38Z
2023-07-06T02:42:26Z,42.805,6.029,13.3019,4.60080,2470.646,2023-7-06T04:44:41Z
2023-07-06T02:45:29Z,42.805,6.029,13.3018,4.60079,2470.684,2023-7-06T04:47:44Z
2023-07-06T02:48:32Z,42.805,6.029,13.3021,4.60079,2470.646,2023-7-06T04:50:48Z
2023-07-06T02:51:35Z,42.805,6.029,13.3018,4.60079,2470.661,2023-7-06T04:53:51Z
2023-07-06T02:54:38Z,42.805,6.029,13.3023,4.60080,2470.67,2023-7-06T04:56:54Z
2023-07-06T02:57:41Z,42.805,6.029,13.3018,4.60079,2470.637,2023-7-06T04:59:57Z
2023-07-06T03:00:44Z,42.805,6.029,13.3018,4.60078,2470.646,2023-7-06T05:03:00Z
2023-07-06T03:03:47Z,42.805,6.029,13.3019,4.60079,2470.646,2023-7-06T05:06:03Z
2023-07-06T03:06:50Z,42.805,6.029,13.3021,4.60081,2470.661,2023-7-06T05:09:06Z
2023-07-06T03:09:53Z,42.805,6.029,13.3024,4.60081,2470.646,2023-7-06T05:12:09Z
2023-07-06T03:12:56Z,42.805,6.029,13.3021,4.60079,2470.624,2023-7-06T05:15:12Z
2023-07-06T03:15:59Z,42.805,6.029,13.3019,4.60079,2470.624,2023-7-06T05:18:15Z
2023-07-06T03:19:02Z,42.805,6.029,13.3022,4.60079,2470.624,2023-7-06T05:21:18Z
2023-07-06T03:22:06Z,42.805,6.029,13.3021,4.60079,2470.624,2023-7-06T05:24:21Z
2023-07-06T03:25:09Z,42.805,6.029,13.3021,4.60081,2470.6,2023-7-06T05:27:24Z
2023-07-06T03:28:12Z,42.805,6.029,13.3019,4.60079,2470.624,2023-7-06T05:30:28Z
2023-07-06T03:31:15Z,42.805,6.029,13.3023,4.60079,2470.637,2023-7-06T05:33:31Z
2023-07-06T03:34:18Z,42.805,6.029,13.3020,4.60081,2470.624,2023-7-06T05:36:34Z
2023-07-06T03:37:21Z,42.805,6.029,13.3021,4.60079,2470.6,2023-7-06T05:39:37Z
2023-07-06T03:40:24Z,42.805,6.029,13.3019,4.60079,2470.624,2023-7-06T05:42:40Z
2023-07-06T03:43:27Z,42.805,6.029,13.3018,4.60080,2470.624,2023-7-06T05:45:43Z
2023-07-06T03:46:30Z,42.805,6.029,13.3018,4.60080,2470.637,2023-7-06T05:48:46Z
2023-07-06T03:49:33Z,42.805,6.029,13.3023,4.60080,2470.6,2023-7-06T05:51:49Z
2023-07-06T03:52:36Z,42.805,6.029,13.3020,4.60080,2470.6,2023-7-06T05:54:52Z
2023-07-06T03:55:39Z,42.805,6.029,13.3022,4.60079,2470.637,2023-7-06T05:57:55Z
2023-07-06T03:58:42Z,42.805,6.029,13.3017,4.60079,2470.646,2023-7-06T06:00:58Z
2023-07-06T04:01:45Z,42.805,6.029,13.3021,4.60079,2470.614,2023-7-06T06:04:01Z
2023-07-06T04:04:49Z,42.805,6.029,13.3020,4.60079,2470.624,2023-7-06T06:07:04Z
2023-07-06T04:07:52Z,42.805,6.029,13.3020,4.60079,2470.6,2023-7-06T06:10:08Z
2023-07-06T04:10:55Z,42.805,6.029,13.3022,4.60080,2470.624,2023-7-06T06:13:11Z
2023-07-06T04:13:58Z,42.805,6.029,13.3018,4.60079,2470.614,2023-7-06T06:16:14Z
2023-07-06T04:17:01Z,42.805,6.029,13.3022,4.60080,2470.624,2023-7-06T06:19:17Z
2023-07-06T04:20:04Z,42.805,6.029,13.3021,4.60079,2470.567,2023-7-06T06:22:20Z
2023-07-06T04:23:07Z,42.805,6.029,13.3021,4.60079,2470.563,2023-7-06T06:25:23Z
2023-07-06T04:26:10Z,42.805,6.029,13.3020,4.60078,2470.614,2023-7-06T06:28:26Z
2023-07-06T04:29:13Z,42.805,6.029,13.3018,4.60078,2470.624,2023-7-06T06:31:29Z
2023-07-06T04:32:17Z,42.805,6.029,13.3017,4.60079,2470.614,2023-7-06T06:34:33Z
2023-07-06T04:35:20Z,42.805,6.029,13.3019,4.60079,2470.6,2023-7-06T06:37:36Z
2023-07-06T04:38:23Z,42.805,6.029,13.3024,4.60079,2470.646,2023-7-06T06:40:39Z
2023-07-06T04:41:26Z,42.805,6.029,13.3022,4.60079,2470.624,2023-7-06T06:43:42Z
2023-07-06T04:44:29Z,42.805,6.029,13.3021,4.60079,2470.624,2023-7-06T06:46:45Z
2023-07-06T04:47:32Z,42.805,6.029,13.3020,4.60080,2470.637,2023-7-06T06:49:48Z
2023-07-06T04:50:35Z,42.805,6.029,13.3019,4.60079,2470.6,2023-7-06T06:52:51Z
2023-07-06T04:53:38Z,42.805,6.029,13.3020,4.60079,2470.637,2023-7-06T06:55:54Z
2023-07-06T04:56:41Z,42.805,6.029,13.3016,4.60078,2470.6,2023-7-06T06:58:57Z
2023-07-06T04:59:45Z,42.805,6.029,13.3019,4.60080,2470.624,2023-7-06T07:02:00Z
2023-07-06T05:02:48Z,42.805,6.029,13.3021,4.60080,2470.624,2023-7-06T07:05:04Z
2023-07-06T05:05:51Z,42.805,6.029,13.3022,4.60079,2470.624,2023-7-06T07:08:07Z
2023-07-06T05:08:54Z,42.805,6.029,13.3021,4.60081,2470.684,2023-7-06T07:11:10Z
2023-07-06T05:11:57Z,42.805,6.029,13.3019,4.60079,2470.646,2023-7-06T07:14:13Z
2023-07-06T05:15:00Z,42.805,6.029,13.3019,4.60079,2470.577,2023-7-06T07:17:16Z
2023-07-06T05:18:03Z,42.805,6.029,13.3021,4.60080,2470.624,2023-7-06T07:20:19Z
2023-07-06T05:21:06Z,42.805,6.029,13.3024,4.60079,2470.624,2023-7-06T07:23:22Z
2023-07-06T05:24:09Z,42.805,6.029,13.3021,4.60082,2470.637,2023-7-06T07:26:25Z
2023-07-06T05:27:12Z,42.805,6.029,13.3018,4.60079,2470.624,2023-7-06T07:29:28Z
2023-07-06T05:30:15Z,42.805,6.029,13.3022,4.60079,2470.661,2023-7-06T07:32:31Z
2023-07-06T05:33:18Z,42.805,6.029,13.3019,4.60079,2470.624,2023-7-06T07:35:34Z
2023-07-06T05:36:21Z,42.805,6.029,13.3024,4.60080,2470.646,2023-7-06T07:38:37Z
2023-07-06T05:39:25Z,42.805,6.029,13.3023,4.60079,2470.637,2023-7-06T07:41:40Z
2023-07-06T05:42:28Z,42.805,6.029,13.3022,4.60079,2470.624,2023-7-06T07:44:43Z
2023-07-06T05:45:31Z,42.805,6.029,13.3024,4.60081,2470.661,2023-7-06T07:47:47Z
2023-07-06T05:48:34Z,42.805,6.029,13.3019,4.60080,2470.661,2023-7-06T07:50:50Z
2023-07-06T05:51:37Z,42.805,6.029,13.3025,4.60079,2470.637,2023-7-06T07:53:53Z
2023-07-06T05:54:40Z,42.805,6.029,13.3023,4.60081,2470.661,2023-7-06T07:56:56Z
2023-07-06T05:57:43Z,42.805,6.029,13.3019,4.60080,2470.646,2023-7-06T07:59:59Z
2023-07-06T06:00:46Z,42.805,6.029,13.3021,4.60080,2470.646,2023-7-06T08:03:02Z
2023-07-06T06:03:49Z,42.805,6.029,13.3017,4.60079,2470.646,2023-7-06T08:06:05Z
2023-07-06T06:06:52Z,42.805,6.029,13.3019,4.60078,2470.67,2023-7-06T08:09:08Z
2023-07-06T06:09:55Z,42.805,6.029,13.3022,4.60079,2470.624,2023-7-06T08:12:11Z
2023-07-06T06:12:58Z,42.805,6.029,13.3020,4.60079,2470.67,2023-7-06T08:15:14Z
2023-07-06T06:16:01Z,42.805,6.029,13.3020,4.60079,2470.67,2023-7-06T08:18:17Z
2023-07-06T06:19:05Z,42.805,6.029,13.3024,4.60079,2470.693,2023-7-06T08:21:20Z
2023-07-06T06:22:08Z,42.805,6.029,13.3022,4.60079,2470.67,2023-7-06T08:24:23Z
2023-07-06T06:25:11Z,42.805,6.029,13.3019,4.60079,2470.707,2023-7-06T08:27:27Z
2023-07-06T06:28:14Z,42.805,6.029,13.3022,4.60079,2470.707,2023-7-06T08:30:30Z
2023-07-06T06:31:17Z,42.805,6.029,13.3019,4.60079,2470.67,2023-7-06T08:33:33Z
2023-07-06T06:34:20Z,42.805,6.029,13.3019,4.60079,2470.67,2023-7-06T08:36:36Z
2023-07-06T06:37:23Z,42.805,6.029,13.3024,4.60079,2470.693,2023-7-06T08:39:39Z
2023-07-06T06:40:26Z,42.805,6.029,13.3021,4.60079,2470.67,2023-7-06T08:42:42Z
2023-07-06T06:43:29Z,42.805,6.029,13.3020,4.60079,2470.693,2023-7-06T08:45:45Z
2023-07-06T06:46:32Z,42.805,6.029,13.3019,4.60079,2470.684,2023-7-06T08:48:48Z
2023-07-06T06:49:35Z,42.805,6.029,13.3021,4.60079,2470.693,2023-7-06T08:51:51Z
2023-07-06T06:52:38Z,42.805,6.029,13.3022,4.60079,2470.693,2023-7-06T08:54:54Z
2023-07-06T06:55:41Z,42.805,6.029,13.3023,4.60079,2470.646,2023-7-06T08:57:57Z
2023-07-06T06:58:45Z,42.805,6.029,13.3017,4.60078,2470.693,2023-7-06T09:01:00Z
2023-07-06T07:01:48Z,42.805,6.029,13.3018,4.60081,2470.67,2023-7-06T09:04:03Z
2023-07-06T07:04:51Z,42.805,6.029,13.3018,4.60079,2470.707,2023-7-06T09:07:07Z
2023-07-06T07:07:54Z,42.805,6.029,13.3021,4.60079,2470.693,2023-7-06T09:10:10Z
2023-07-06T07:10:57Z,42.805,6.029,13.3020,4.60080,2470.717,2023-7-06T09:13:13Z
2023-07-06T07:14:00Z,42.805,6.029,13.3020,4.60080,2470.717,2023-7-06T09:16:16Z
2023-07-06T07:17:03Z,42.805,6.029,13.3022,4.60079,2470.693,2023-7-06T09:19:19Z
2023-07-06T07:20:06Z,42.805,6.029,13.3019,4.60079,2470.707,2023-7-06T09:22:22Z
2023-07-06T07:23:09Z,42.805,6.029,13.3018,4.60084,2470.707,2023-7-06T09:25:25Z
2023-07-06T07:26:12Z,42.805,6.029,13.3021,4.60080,2470.693,2023-7-06T09:28:28Z
2023-07-06T07:29:15Z,42.805,6.029,13.3023,4.60081,2470.679,2023-7-06T09:31:31Z
2023-07-06T07:32:18Z,42.805,6.029,13.3021,4.60081,2470.693,2023-7-06T09:34:34Z
2023-07-06T07:35:21Z,42.805,6.029,13.3021,4.60080,2470.693,2023-7-06T09:37:37Z
2023-07-06T07:38:24Z,42.805,6.029,13.3023,4.60080,2470.703,2023-7-06T09:40:40Z
2023-07-06T07:41:28Z,42.805,6.029,13.3019,4.60083,2470.754,2023-7-06T09:43:43Z
2023-07-06T07:44:31Z,42.805,6.029,13.3019,4.60080,2470.707,2023-7-06T09:46:47Z
2023-07-06T07:47:34Z,42.805,6.029,13.3020,4.60081,2470.707,2023-7-06T09:49:50Z
2023-07-06T07:50:37Z,42.805,6.029,13.3022,4.60080,2470.74,2023-7-06T09:52:53Z
2023-07-06T07:53:40Z,42.805,6.029,13.3024,4.60080,2470.74,2023-7-06T09:55:56Z
2023-07-06T07:56:43Z,42.805,6.029,13.3021,4.60080,2470.754,2023-7-06T09:58:59Z
2023-07-06T07:59:46Z,42.805,6.029,13.3021,4.60081,2470.717,2023-7-06T10:02:02Z
2023-07-06T08:02:49Z,42.805,6.029,13.3023,4.60082,2470.717,2023-7-06T10:05:05Z
2023-07-06T08:05:52Z,42.805,6.029,13.3025,4.60081,2470.73,2023-7-06T10:08:08Z
2023-07-06T08:08:55Z,42.805,6.029,13.3024,4.60080,2470.717,2023-7-06T10:11:11Z
2023-07-06T08:11:58Z,42.805,6.029,13.3019,4.60080,2470.717,2023-7-06T10:14:14Z
2023-07-06T08:15:01Z,42.805,6.029,13.3021,4.60080,2470.717,2023-7-06T10:17:17Z
2023-07-06T08:18:04Z,42.805,6.029,13.3021,4.60081,2470.717,2023-7-06T10:20:20Z
2023-07-06T08:21:08Z,42.805,6.029,13.3019,4.60079,2470.717,2023-7-06T10:23:23Z
2023-07-06T08:24:11Z,42.805,6.029,13.3024,4.60081,2470.74,2023-7-06T10:26:27Z
2023-07-06T08:27:14Z,42.805,6.029,13.3017,4.60081,2470.73,2023-7-06T10:29:30Z
2023-07-06T08:30:15Z,42.805,6.029,13.3021,4.60080,2470.703,2023-7-06T10:32:31Z
2023-07-06T08:33:18Z,42.805,6.029,13.3021,4.60081,2470.754,2023-7-06T10:35:34Z
2023-07-06T08:36:21Z,42.805,6.029,13.3022,4.60080,2470.73,2023-7-06T10:38:37Z
2023-07-06T08:39:25Z,42.805,6.029,13.3019,4.60080,2470.717,2023-7-06T10:41:40Z
2023-07-06T08:42:28Z,42.805,6.029,13.3020,4.60081,2470.73,2023-7-06T10:44:44Z
2023-07-06T08:45:31Z,42.805,6.029,13.3019,4.60082,2470.73,2023-7-06T10:47:47Z
2023-07-06T08:48:34Z,42.805,6.029,13.3019,4.60081,2470.717,2023-7-06T10:50:50Z
2023-07-06T08:51:37Z,42.805,6.029,13.3023,4.60081,2470.74,2023-7-06T10:53:53Z
2023-07-06T08:54:40Z,42.805,6.029,13.3020,4.60081,2470.74,2023-7-06T10:56:56Z
2023-07-06T08:57:43Z,42.805,6.029,13.3021,4.60081,2470.717,2023-7-06T10:59:59Z
2023-07-06T09:00:46Z,42.805,6.029,13.3023,4.60082,2470.74,2023-7-06T11:03:02Z
2023-07-06T09:03:49Z,42.805,6.029,13.3020,4.60081,2470.74,2023-7-06T11:06:05Z
2023-07-06T09:06:52Z,42.805,6.029,13.3023,4.60080,2470.73,2023-7-06T11:09:08Z
2023-07-06T09:09:55Z,42.805,6.029,13.3021,4.60083,2470.74,2023-7-06T11:12:11Z
2023-07-06T09:12:58Z,42.805,6.029,13.3018,4.60081,2470.754,2023-7-06T11:15:14Z
2023-07-06T09:16:01Z,42.805,6.029,13.3020,4.60084,2470.717,2023-7-06T11:18:17Z
2023-07-06T09:19:05Z,42.805,6.029,13.3022,4.60082,2470.73,2023-7-06T11:21:20Z
2023-07-06T09:22:08Z,42.805,6.029,13.3020,4.60081,2470.73,2023-7-06T11:24:24Z
2023-07-06T09:25:11Z,42.805,6.029,13.3018,4.60082,2470.717,2023-7-06T11:27:27Z
2023-07-06T09:28:14Z,42.805,6.029,13.3022,4.60081,2470.73,2023-7-06T11:30:30Z
2023-07-06T09:31:17Z,42.805,6.029,13.3022,4.60081,2470.73,2023-7-06T11:33:33Z
2023-07-06T09:34:20Z,42.805,6.029,13.3020,4.60081,2470.73,2023-7-06T11:36:36Z
2023-07-06T09:37:23Z,42.805,6.029,13.3020,4.60081,2470.693,2023-7-06T11:39:39Z
2023-07-06T09:40:26Z,42.805,6.029,13.3020,4.60079,2470.707,2023-7-06T11:42:42Z
2023-07-06T09:43:29Z,42.805,6.029,13.3020,4.60079,2470.717,2023-7-06T11:45:45Z
2023-07-06T09:46:32Z,42.805,6.029,13.3019,4.60079,2470.693,2023-7-06T11:48:48Z
2023-07-06T09:49:35Z,42.805,6.029,13.3024,4.60081,2470.693,2023-7-06T11:51:51Z
2023-07-06T09:52:38Z,42.805,6.029,13.3020,4.60081,2470.707,2023-7-06T11:54:54Z
2023-07-06T09:55:42Z,42.805,6.029,13.3024,4.60079,2470.717,2023-7-06T11:57:57Z
2023-07-06T09:58:45Z,42.805,6.029,13.3022,4.60079,2470.73,2023-7-06T12:01:01Z
2023-07-06T10:01:48Z,42.805,6.029,13.3021,4.60079,2470.67,2023-7-06T12:04:04Z
2023-07-06T10:04:51Z,42.805,6.029,13.3022,4.60080,2470.717,2023-7-06T12:07:07Z
2023-07-06T10:07:54Z,42.805,6.029,13.3020,4.60078,2470.717,2023-7-06T12:10:10Z
2023-07-06T10:10:57Z,42.805,6.029,13.3021,4.60081,2470.693,2023-7-06T12:13:13Z
2023-07-06T10:14:00Z,42.805,6.029,13.3021,4.60080,2470.693,2023-7-06T12:16:16Z
2023-07-06T10:17:03Z,42.805,6.029,13.3021,4.60080,2470.684,2023-7-06T12:19:19Z
2023-07-06T10:20:06Z,42.805,6.029,13.3015,4.60081,2470.646,2023-7-06T12:22:22Z
2023-07-06T10:23:09Z,42.805,6.029,13.3021,4.60081,2470.693,2023-7-06T12:25:25Z
2023-07-06T10:26:12Z,42.805,6.029,13.3020,4.60079,2470.67,2023-7-06T12:28:28Z
2023-07-06T10:29:15Z,42.805,6.029,13.3019,4.60079,2470.73,2023-7-06T12:31:31Z
2023-07-06T10:32:18Z,42.805,6.029,13.3021,4.60080,2470.693,2023-7-06T12:34:34Z
2023-07-06T10:35:21Z,42.805,6.029,13.3020,4.60079,2470.67,2023-7-06T12:37:37Z
2023-07-06T10:38:24Z,42.805,6.029,13.3021,4.60079,2470.703,2023-7-06T12:40:40Z
2023-07-06T10:41:27Z,42.805,6.029,13.3020,4.60079,2470.67,2023-7-06T12:43:43Z
2023-07-06T10:44:31Z,42.805,6.029,13.3023,4.60081,2470.707,2023-7-06T12:46:46Z
2023-07-06T10:47:34Z,42.805,6.029,13.3020,4.60078,2470.67,2023-7-06T12:49:50Z
2023-07-06T10:50:37Z,42.805,6.029,13.3023,4.60079,2470.693,2023-7-06T12:52:53Z
2023-07-06T10:53:40Z,42.805,6.029,13.3024,4.60079,2470.67,2023-7-06T12:55:56Z
2023-07-06T10:56:43Z,42.805,6.029,13.3019,4.60078,2470.717,2023-7-06T12:58:59Z
2023-07-06T10:59:46Z,42.805,6.029,13.3020,4.60079,2470.684,2023-7-06T13:02:02Z
2023-07-06T11:02:49Z,42.805,6.029,13.3020,4.60079,2470.67,2023-7-06T13:05:05Z
2023-07-06T11:05:52Z,42.805,6.029,13.3016,4.60081,2470.67,2023-7-06T13:08:08Z
2023-07-06T11:08:55Z,42.805,6.029,13.3021,4.60084,2470.661,2023-7-06T13:11:11Z
2023-07-06T11:11:58Z,42.805,6.029,13.3021,4.60080,2470.707,2023-7-06T13:14:14Z
2023-07-06T11:15:01Z,42.805,6.029,13.3023,4.60079,2470.684,2023-7-06T13:17:17Z
2023-07-06T11:18:04Z,42.805,6.029,13.3021,4.60080,2470.67,2023-7-06T13:20:20Z
2023-07-06T11:21:07Z,42.805,6.029,13.3023,4.60078,2470.707,2023-7-06T13:23:23Z
2023-07-06T11:24:11Z,42.805,6.029,13.3020,4.60079,2470.707,2023-7-06T13:26:26Z
2023-07-06T11:27:14Z,42.805,6.029,13.3021,4.60079,2470.67,2023-7-06T13:29:30Z
2023-07-06T11:30:17Z,42.805,6.029,13.3021,4.60079,2470.684,2023-7-06T13:32:33Z
2023-07-06T11:33:20Z,42.805,6.029,13.3021,4.60080,2470.67,2023-7-06T13:35:36Z
2023-07-06T11:36:23Z,42.805,6.029,13.3020,4.60079,2470.717,2023-7-06T13:38:39Z
2023-07-06T11:39:26Z,42.805,6.029,13.3024,4.60083,2470.646,2023-7-06T13:41:42Z
2023-07-06T11:42:29Z,42.805,6.029,13.3019,4.60079,2470.67,2023-7-06T13:44:45Z
2023-07-06T11:45:32Z,42.805,6.029,13.3019,4.60080,2470.646,2023-7-06T13:47:48Z
2023-07-06T11:48:35Z,42.805,6.029,13.3026,4.60079,2470.646,2023-7-06T13:50:51Z
2023-07-06T11:51:38Z,42.805,6.029,13.3021,4.60081,2470.646,2023-7-06T13:53:54Z
2023-07-06T11:54:41Z,42.805,6.029,13.3018,4.60079,2470.693,2023-7-06T13:56:57Z
2023-07-06T11:57:44Z,42.805,6.029,13.3018,4.60080,2470.646,2023-7-06T14:00:00Z
2023-07-06T12:00:48Z,42.805,6.029,13.3019,4.60079,2470.646,2023-7-06T14:03:03Z
2023-07-06T12:03:51Z,42.805,6.029,13.3021,4.60080,2470.646,2023-7-06T14:06:07Z
2023-07-06T12:06:54Z,42.805,6.029,13.3020,4.60079,2470.646,2023-7-06T14:09:10Z
2023-07-06T12:09:57Z,42.805,6.029,13.3021,4.60079,2470.646,2023-7-06T14:12:13Z
2023-07-06T12:13:00Z,42.805,6.029,13.3020,4.60080,2470.646,2023-7-06T14:15:16Z
2023-07-06T12:16:03Z,42.805,6.029,13.3019,4.60079,2470.6,2023-7-06T14:18:19Z
2023-07-06T12:19:06Z,42.805,6.029,13.3022,4.60079,2470.624,2023-7-06T14:21:22Z
2023-07-06T12:22:09Z,42.805,6.029,13.3019,4.60081,2470.637,2023-7-06T14:24:25Z
2023-07-06T12:25:12Z,42.805,6.029,13.3019,4.60080,2470.646,2023-7-06T14:27:28Z
2023-07-06T12:28:15Z,42.805,6.029,13.3018,4.60081,2470.624,2023-7-06T14:30:31Z
2023-07-06T12:31:17Z,42.805,6.029,13.3021,4.60080,2470.637,2023-7-06T14:33:33Z
2023-07-06T12:34:20Z,42.805,6.029,13.3021,4.60082,2470.646,2023-7-06T14:36:36Z
2023-07-06T12:37:23Z,42.805,6.029,13.3022,4.60080,2470.661,2023-7-06T14:39:39Z
2023-07-06T12:40:26Z,42.805,6.029,13.3021,4.60080,2470.646,2023-7-06T14:42:42Z
2023-07-06T12:43:29Z,42.805,6.029,13.3021,4.60079,2470.624,2023-7-06T14:45:45Z
2023-07-06T12:46:32Z,42.805,6.029,13.3023,4.60081,2470.646,2023-7-06T14:48:48Z
2023-07-06T12:49:35Z,42.805,6.029,13.3022,4.60079,2470.637,2023-7-06T14:51:51Z
2023-07-06T12:52:38Z,42.805,6.029,13.3018,4.60080,2470.624,2023-7-06T14:54:54Z
2023-07-06T12:55:41Z,42.805,6.029,13.3020,4.60080,2470.637,2023-7-06T14:57:57Z
2023-07-06T12:58:45Z,42.805,6.029,13.3020,4.60079,2470.67,2023-7-06T15:01:00Z
2023-07-06T13:01:48Z,42.805,6.029,13.3019,4.60079,2470.624,2023-7-06T15:04:04Z
2023-07-06T13:04:51Z,42.805,6.029,13.3023,4.60079,2470.646,2023-7-06T15:07:07Z
2023-07-06T13:07:54Z,42.805,6.029,13.3019,4.60082,2470.624,2023-7-06T15:10:10Z
2023-07-06T13:10:57Z,42.805,6.029,13.3019,4.60078,2470.6,2023-7-06T15:13:13Z
2023-07-06T13:14:00Z,42.805,6.029,13.3022,4.60079,2470.6,2023-7-06T15:16:16Z
2023-07-06T13:17:03Z,42.805,6.029,13.3021,4.60081,2470.577,2023-7-06T15:19:19Z
2023-07-06T13:20:06Z,42.805,6.029,13.3017,4.60079,2470.6,2023-7-06T15:22:22Z
2023-07-06T13:23:09Z,42.805,6.029,13.3021,4.60080,2470.6,2023-7-06T15:25:25Z
2023-07-06T13:26:12Z,42.805,6.029,13.3024,4.60079,2470.637,2023-7-06T15:28:28Z
2023-07-06T13:29:15Z,42.805,6.029,13.3021,4.60080,2470.637,2023-7-06T15:31:31Z
2023-07-06T13:32:18Z,42.805,6.029,13.3020,4.60084,2470.614,2023-7-06T15:34:34Z
2023-07-06T13:35:22Z,42.805,6.029,13.3021,4.60078,2470.614,2023-7-06T15:37:37Z
2023-07-06T13:38:25Z,42.805,6.029,13.3020,4.60080,2470.614,2023-7-06T15:40:41Z
2023-07-06T13:41:28Z,42.805,6.029,13.3023,4.60080,2470.614,2023-7-06T15:43:44Z
2023-07-06T13:44:31Z,42.805,6.029,13.3020,4.60080,2470.577,2023-7-06T15:46:47Z
2023-07-06T13:47:34Z,42.805,6.029,13.3028,4.60084,2470.577,2023-7-06T15:49:50Z
2023-07-06T13:50:37Z,42.805,6.029,13.3021,4.60080,2470.614,2023-7-06T15:52:53Z
2023-07-06T13:53:40Z,42.805,6.029,13.3017,4.60079,2470.577,2023-7-06T15:55:56Z
2023-07-06T13:56:43Z,42.805,6.029,13.3023,4.60081,2470.6,2023-7-06T15:58:59Z
2023-07-06T13:59:46Z,42.805,6.029,13.3024,4.60078,2470.577,2023-7-06T16:02:02Z
2023-07-06T14:02:49Z,42.805,6.029,13.3020,4.60079,2470.591,2023-7-06T16:05:05Z
2023-07-06T14:05:52Z,42.805,6.029,13.3020,4.60085,2470.591,2023-7-06T16:08:08Z
2023-07-06T14:08:55Z,42.805,6.029,13.3023,4.60081,2470.614,2023-7-06T16:11:11Z
2023-07-06T14:11:58Z,42.805,6.029,13.3021,4.60080,2470.577,2023-7-06T16:14:14Z
2023-07-06T14:15:02Z,42.805,6.029,13.3020,4.60080,2470.577,2023-7-06T16:17:17Z
2023-07-06T14:18:05Z,42.805,6.029,13.3019,4.60082,2470.577,2023-7-06T16:20:21Z
2023-07-06T14:21:08Z,42.805,6.029,13.3023,4.60079,2470.577,2023-7-06T16:23:24Z
2023-07-06T14:24:11Z,42.805,6.029,13.3026,4.60087,2470.553,2023-7-06T16:26:27Z
2023-07-06T14:27:14Z,42.805,6.029,13.3023,4.60081,2470.553,2023-7-06T16:29:30Z
2023-07-06T14:30:17Z,42.805,6.029,13.3024,4.60079,2470.6,2023-7-06T16:32:33Z
2023-07-06T14:33:20Z,42.805,6.029,13.3022,4.60080,2470.553,2023-7-06T16:35:36Z
2023-07-06T14:36:23Z,42.805,6.029,13.3019,4.60081,2470.553,2023-7-06T16:38:39Z
2023-07-06T14:39:26Z,42.805,6.029,13.3019,4.60079,2470.591,2023-7-06T16:41:42Z
2023-07-06T14:42:29Z,42.805,6.029,13.3021,4.60080,2470.553,2023-7-06T16:44:45Z
2023-07-06T14:45:32Z,42.805,6.029,13.3020,4.60079,2470.577,2023-7-06T16:47:48Z
2023-07-06T14:48:35Z,42.805,6.029,13.3026,4.60081,2470.553,2023-7-06T16:50:51Z
2023-07-06T14:51:39Z,42.805,6.029,13.3019,4.60080,2470.567,2023-7-06T16:53:54Z
2023-07-06T14:54:42Z,42.805,6.029,13.3023,4.60079,2470.553,2023-7-06T16:56:58Z
2023-07-06T14:57:45Z,42.805,6.029,13.3019,4.60079,2470.591,2023-7-06T17:00:01Z
2023-07-06T15:00:48Z,42.805,6.029,13.3018,4.60080,2470.567,2023-7-06T17:03:04Z
2023-07-06T15:03:51Z,42.805,6.029,13.3024,4.60083,2470.577,2023-7-06T17:06:07Z
2023-07-06T15:06:54Z,42.805,6.029,13.3016,4.60079,2470.567,2023-7-06T17:09:10Z
2023-07-06T15:09:57Z,42.805,6.029,13.3017,4.60079,2470.591,2023-7-06T17:12:13Z
2023-07-06T15:13:00Z,42.805,6.029,13.3020,4.60081,2470.553,2023-7-06T17:15:16Z